KFUL

Details ICAO KFUL (FUL)
Name Fullerton Muni
Region United States
Timezone America/Los_Angeles (UTC-7.0)
Plans Departing 44
Arriving 28
Stats Elevation 96 ft / 29 m (AMSL)
Location 33.872024° -117.979798°
Runways 1
Magnetic Variation 11.867° E
Sunrise 2018-05-27 12:45:16 UTC / 2018-05-27 05:45:16 Local
Sunset 2018-05-28 02:55:50 UTC / 2018-05-27 19:55:50 Local
Advertisement - Login to hide

Runways

ID Width Length Bearing (true) Bearing (mag) Surface Threshold Offset Overrun Length
06 75 ft / 23 m 3,115 ft / 950 m 76.92° 65.05° Asphalt 427 ft / 130 m 0 ft / 0 m
24 75 ft / 23 m 3,115 ft / 950 m 256.92° 245.05° Asphalt 253 ft / 77 m 0 ft / 0 m

Approach Navaids

Runway Type Ident Frequency Range Bearing (true) Bearing (mag) Slope Elevation
24 Localiser IFUL 108.90 MHz 18 nm / 33 km 256.92° 245.05° - 84 ft / 26 m (AMSL)
24 DME IFUL 108.90 MHz 18 nm / 33 km - - - 96 ft / 29 m (AMSL)

Map

Weather


0- 5 10 15 20 25 30 35+ Temperature / ° C

Clouds and Precipitation
Forecast for 2018-05-28 00:00 UTC. Updated 4 hours ago

Ground ~20,000 ft ~40,000 ft Winds

METAR

KFUL 280253Z 19008KT 10SM CLR 18/13 A2991 RMK AO2 SLP127 T01830128 53009

TAF

Not found

Frequencies

Recorded 125.05 MHz ATIS
Unicom 122.95 MHz UNICOM
Tower 119.10 MHz TWR
Unicom 119.10 MHz CTAF
Ground 121.80 MHz GND
Approach 124.65 MHz SOCAL APP/DEP
Warning: Do not use this data for real-world aviation or navigation. No guarantee of current accuracy is given.